FENGYUN 1C DEB

Satellite information

Favourite Embed

Satellite Type and Status

DEBRISIN ORBIT

Key statistics

Satellite FENGYUN 1C DEB at a glance.

Uptime

9613

Days in orbit

Revolutions

≈ 14.2

Per day

Orbit

SSO

Sun Synchronous Orbit

Inclination

98.4

Latest

Satellite identification and parameters

Extended collection of information and parameters for FENGYUN 1C DEB.

Object identification

Identified? True

Debris? True

Object name: FENGYUN 1C DEB

International designator: 1999-025BTV

Object number (NORAD): 31433

Object ID (CCSDS): 31433

Country: PEOPLES REPUBLIC OF CHINA (PRC)

Current information (Y/N): Y

RCS size: SMALL

Orbital parameters

Period: 101.123 minutes

Inclination: 98.4095 deg

SMA: 7189.982 km

Apoapsis: 884.418 km

Periapsis: 739.277 km

RAAN: 153.4289 deg

Eccentricy: 0.01009326

Argument of periapsis: 327.2452 deg

Mean anomaly: 87.1158 deg

Mean motion: 14.24003405 rev/day

Mean motion (dot): 0.00012181 rev/day2

B* drag term: 0.0050421142 1/REarth

Two-line elements (TLE)

Creation date: Sept. 3, 2025, 2:21 a.m.

Reference frame: TEME

Reference center: EARTH

Epoch: Sept. 2, 2025, 5:29 p.m. UTC

TLE line 0: 0 FENGYUN 1C DEB

TLE line 1: 1 31433U 99025BTV 25245.72860875 .00012181 00000-0 50421-2 0 9997

TLE line 2: 2 31433 98.4095 153.4289 0100933 327.2452 87.1158 14.24003405941146

Live tracking on map

Real-time ground track for satellite FENGYUN 1C DEB.

In-orbit conjunctions

A list of the most updated potential collisions computed for object FENGYUN 1C DEB.

Target Orbit TCA Probability of collision Miss distance Type
FENGYUN 1C DEB SSO 2025-07-12 09:31:34 0.0002974229 88.0 (m) DEBRIS
FENGYUN 1C DEB SSO 2025-07-12 05:58:14 0.0001212244 97.0 (m) DEBRIS
FENGYUN 1C DEB SSO 2025-05-11 18:57:02 0.0004334558 28.0 (m) DEBRIS
CZ-6A DEB LEO 2025-02-27 07:08:09 0.0001472658 132.0 (m) DEBRIS
METEOR 2-17 DEB LEO 2024-11-15 22:48:39 0.0001227825 423.0 (m) DEBRIS

Associated space launch

Chinese polar orbiting meteorological satellite

FENGYUN 1C DEB was lifted into orbit during the mission ‘Long March 4B | Feng Yun 1C’, on board a Long March 4B space rocket.

The launch took place on May 10, 1999, 1:33 a.m. from Launch Complex 7.

For more information about the launch, click the button.

Launch to space Long March 4B | Feng Yun 1C
Long March 4B | Feng Yun 1C

Agency: N/A

Status: Launch Successful

Launch date: May 10, 1999, 1:33 a.m. UTC

Rocket: Long March 4B

Launch pad: Launch Complex 7

Location: Taiyuan Satellite Launch Center, People's Republic of China

...

Latest news about this satellite

There are no fresh news available about this satellite. Check back as we update our databases every day.


Newsletter sign-up

Weekly statistics, charts and insights to help you stay on top of the space industry.